This demonstration page uses our WeatherBlox Daily Observations layout. Learn more.

Left ArrowRight Arrow

34.74481, -87.66753

Hourly Observations for September 2, 2019

Temp ( °F °C ) Dew Point ( °F °C ) Humidity (%) Winds ( mph kmh ) Pressure ( in mb ) Visibility ( mi km ) Precip ( " mm )
12:53 am 00:53 Clear 73 22.8 69 20.6 87 87 Calm 30.06 1018 10 16 0.00 0.00
1:53 am 01:53 Clear 72 22.2 69 20.6 91 91 Calm 30.06 1018 10 16 0.00 0.00
2:53 am 02:53 Clear 72 22.2 69 20.6 91 91 Calm 30.04 1017 10 16 0.00 0.00
3:53 am 03:53 Clear 71 21.7 69 20.6 94 94 Calm 30.04 1017 10 16 0.00 0.00
4:53 am 04:53 Clear 70 21.1 67 19.4 90 90 Calm 30.05 1018 10 16 0.00 0.00
5:53 am 05:53 Clear 70 21.1 67 19.4 90 90 Calm 30.06 1018 10 16 0.00 0.00
6:53 am 06:53 Sunny 71 21.7 68 20 90 90 Calm 30.08 1019 10 16 0.00 0.00
7:53 am 07:53 Sunny 73 22.8 70 21.1 90 90 Calm 30.09 1019 10 16 0.00 0.00
8:53 am 08:53 Sunny 82 27.8 72 22.2 72 72 Calm 30.09 1019 10 16 0.00 0.00
9:53 am 09:53 Sunny 87 30.6 69 20.6 55 55 NW 6 9 30.09 1019 10 16 0.00 0.00
10:53 am 10:53 Sunny 89 31.7 69 20.6 52 52 VRB 6 9 30.09 1019 10 16 0.00 0.00
11:53 am 11:53 Mostly Sunny 92 33.3 69 20.6 47 47 N 6 9 30.07 1018 10 16 0.00 0.00
12:53 pm 12:53 Mostly Sunny 92 33.3 68 20 46 46 NNW 3 6 30.06 1018 10 16 0.00 0.00
1:53 pm 13:53 Mostly Sunny 93 33.9 65 18.3 40 40 E 3 6 30.04 1017 10 16 0.00 0.00
2:53 pm 14:53 Mostly Sunny 93 33.9 69 20.6 46 46 VRB 6 9 30.01 1016 10 16 0.00 0.00
3:53 pm 15:53 Sunny 94 34.4 67 19.4 41 41 NW 8 13 30.00 1016 10 16 0.00 0.00
4:53 pm 16:53 Sunny 93 33.9 67 19.4 42 42 N 5 7 29.99 1016 10 16 0.00 0.00
5:53 pm 17:53 Sunny 91 32.8 68 20 47 47 VRB 3 6 29.99 1016 10 16 0.00 0.00
6:53 pm 18:53 Sunny 87 30.6 70 21.1 57 57 N 3 6 29.99 1016 10 16 0.00 0.00
7:53 pm 19:53 Clear 83 28.3 70 21.1 65 65 N 3 6 29.99 1016 10 16 0.00 0.00
8:53 pm 20:53 Clear 81 27.2 71 21.7 72 72 Calm 30.00 1016 10 16 0.00 0.00
9:53 pm 21:53 Clear 81 27.2 71 21.7 72 72 N 3 6 30.01 1016 10 16 0.00 0.00
10:53 pm 22:53 Clear 79 26.1 71 21.7 77 77 NNE 5 7 30.01 1016 10 16 0.00 0.00
11:53 pm 23:53 Clear 77 25 71 21.7 82 82 Calm 30.01 1016 10 16 0.00 0.00

Powered by AerisWeather